Temp
-7 -7 -6 -6 -6 -6 -6 -6 -6 -6 -6 -6 -5 -6 -6 -6 -6 -6 -6 -6 -6 -6 -6 -7 -7 -7 -7 -7 -8 -9 -10 -10 -10 -10 -9 -9 -9 -9 -8 -8 -8 -9 -9 -9 -9
-7 -7 -7 -7 -7 -6 -6 -6 -6 -6 -6 -6 -6 -6 -6 -5 -5 -5 -6 -6 -6 -6 -7 -7 -7 -7 -7 -7 -7 -9 -10 -10 -10 -9 -9 -9 -9 -9 -9 -8 -8 -8 -9 -10 -10
-7 -7 -7 -7 -7 -7 -7 -6 -6 -6 -6 -6 -6 -6 -6 -6 -6 -6 -6 -6 -6 -6 -6 -6 -7 -7 -7 -7 -7 -9 -10 -10 -10 -9 -9 -9 -10 -9 -9 -9 -8 -9 -9 -10 -10
-7 -7 -7 -7 -7 -6 -7 -6 -6 -7 -7 -7 -6 -6 -6 -6 -6 -6 -6 -6 -6 -6 -6 -6 -6 -7 -7 -7 -7 -8 -10 -10 -10 -10 -9 -9 -10 -9 -9 -8 -8 -9 -8 -9 -9
-7 -7 -7 -7 -7 -7 -7 -7 -6 -7 -7 -7 -7 -7 -7 -6 -7 -6 -6 -6 -6 -6 -6 -6 -6 -7 -7 -7 -7 -8 -9 -10 -10 -10 -10 -9 -9 -9 -9 -9 -9 -9 -9 -9 -9
-8 -7 -7 -7 -7 -7 -7 -7 -7 -7 -7 -7 -7 -7 -7 -6 -7 -7 -7 -6 -6 -6 -6 -6 -6 -6 -7 -7 -7 -8 -9 -10 -10 -10 -10 -10 -10 -10 -9 -10 -9 -9 -9 -9 -10
-8 -8 -8 -7 -8 -7 -7 -7 -7 -7 -7 -7 -7 -7 -7 -7 -7 -7 -6 -6 -6 -6 -6 -6 -6 -6 -7 -7 -7 -7 -8 -9 -10 -10 -10 -10 -10 -10 -10 -10 -10 -9 -9 -9 -10
-8 -8 -8 -8 -7 -7 -7 -7 -7 -7 -7 -7 -7 -7 -7 -7 -7 -7 -7 -7 -7 -7 -6 -6 -7 -7 -7 -7 -8 -8 -8 -9 -10 -10 -10 -10 -9 -10 -10 -10 -10 -10 -9 -8 -9
-8 -8 -8 -8 -8 -7 -7 -7 -7 -7 -7 -7 -7 -7 -8 -8 -7 -7 -7 -7 -7 -7 -7 -7 -7 -7 -7 -7 -8 -8 -8 -9 -10 -10 -10 -10 -9 -9 -9 -9 -10 -10 -10 -9 -9
-8 -8 -8 -8 -8 -8 -8 -8 -8 -8 -8 -7 -8 -8 -8 -8 -8 -8 -8 -8 -7 -8 -8 -7 -7 -7 -8 -8 -8 -8 -8 -9 -9 -10 -10 -10 -9 -9 -10 -10 -10 -10 -10 -10 -8
-9 -8 -8 -8 -8 -8 -8 -8 -8 -8 -8 -8 -8 -8 -8 -8 -8 -8 -8 -8 -8 -8 -8 -8 -8 -8 -8 -8 -8 -8 -8 -8 -9 -10 -10 -10 -10 -10 -10 -10 -9 -10 -10 -10 -10
-9 -9 -8 -8 -8 -8 -8 -8 -8 -8 -8 -8 -9 -8 -9 -9 -8 -8 -8 -8 -8 -8 -8 -8 -8 -8 -8 -8 -8 -8 -8 -8 -8 -9 -9 -9 -10 -10 -10 -10 -10 -10 -9 -10 -10
-9 -9 -9 -8 -8 -8 -8 -9 -9 -9 -8 -9 -9 -8 -9 -8 -8 -8 -8 -8 -9 -9 -9 -9 -9 -9 -9 -9 -9 -9 -9 -9 -9 -9 -9 -9 -9 -9 -9 -9 -8 -9 -9 -9 -9
-10 -9 -9 -9 -9 -9 -8 -9 -9 -9 -8 -9 -8 -8 -8 -9 -9 -9 -8 -8 -9 -9 -9 -9 -9 -9 -9 -9 -9 -9 -9 -9 -9 -9 -9 -9 -8 -8 -8 -8 -8 -9 -9 -8 -9
-10 -9 -9 -9 -9 -9 -9 -9 -9 -9 -9 -8 -8 -9 -8 -9 -9 -9 -9 -9 -9 -9 -9 -9 -9 -10 -10 -10 -10 -10 -10 -9 -9 -9 -9 -9 -9 -8 -8 -8 -8 -9 -9 -9 -10
-10 -9 -9 -9 -9 -9 -9 -9 -9 -9 -9 -9 -9 -9 -9 -9 -9 -9 -9 -10 -10 -10 -10 -10 -10 -10 -11 -11 -10 -10 -10 -10 -9 -9 -9 -9 -9 -9 -8 -9 -9 -9 -10 -10 -10
-10 -10 -9 -9 -10 -10 -10 -9 -10 -9 -10 -10 -10 -10 -10 -10 -10 -10 -10 -10 -10 -10 -10 -10 -11 -11 -11 -11 -11 -11 -11 -10 -10 -10 -9 -9 -9 -9 -9 -9 -10 -10 -10 -10 -10
-10 -10 -10 -10 -10 -10 -10 -10 -10 -10 -10 -10 -10 -10 -10 -10 -10 -10 -10 -10 -11 -11 -11 -11 -12 -12 -12 -12 -12 -12 -12 -11 -10 -10 -10 -10 -9 -8 -9 -9 -9 -10 -10 -10 -10
-10 -11 -11 -11 -11 -11 -11 -11 -11 -11 -11 -11 -11 -10 -10 -11 -11 -11 -11 -11 -11 -11 -11 -11 -11 -12 -12 -12 -12 -12 -12 -12 -11 -11 -10 -9 -9 -9 -9 -10 -10 -10 -10 -10 -11
-11 -11 -11 -11 -11 -11 -11 -11 -11 -11 -11 -11 -11 -11 -11 -11 -11 -11 -11 -11 -11 -11 -11 -11 -11 -11 -12 -12 -11 -12 -12 -12 -13 -12 -11 -10 -9 -9 -9 -9 -10 -9 -10 -10 -10
-12 -12 -12 -12 -12 -12 -12 -12 -12 -12 -12 -12 -12 -12 -12 -12 -12 -12 -12 -12 -12 -12 -12 -12 -11 -11 -12 -12 -12 -13 -12 -12 -12 -12 -12 -11 -10 -10 -10 -10 -10 -10 -10 -10 -10
-12 -12 -12 -12 -12 -12 -12 -12 -12 -12 -12 -12 -12 -12 -12 -12 -12 -12 -12 -12 -12 -12 -12 -12 -12 -12 -12 -12 -12 -12 -12 -12 -13 -12 -12 -11 -10 -11 -11 -11 -11 -11 -10 -10 -10
-12 -13 -13 -13 -13 -13 -12 -12 -12 -12 -12 -12 -12 -12 -12 -12 -12 -12 -12 -12 -12 -12 -12 -12 -12 -12 -12 -12 -12 -12 -12 -13 -12 -12 -12 -12 -10 -11 -11 -12 -12 -11 -11 -11 -11
-13 -13 -13 -13 -13 -13 -13 -13 -13 -13 -13 -13 -13 -12 -12 -12 -12 -12 -12 -12 -12 -12 -12 -12 -12 -12 -12 -12 -12 -12 -13 -13 -13 -12 -12 -11 -11 -12 -12 -12 -13 -12 -12 -12 -12
-13 -13 -13 -13 -13 -13 -13 -13 -13 -13 -13 -13 -13 -13 -13 -13 -13 -13 -13 -13 -13 -13 -13 -13 -13 -12 -13 -13 -12 -12 -12 -12 -13 -14 -13 -11 -12 -11 -11 -12 -12 -13 -13 -13 -12
-14 -13 -13 -13 -13 -13 -13 -13 -13 -13 -13 -13 -13 -13 -13 -13 -13 -13 -14 -14 -15 -15 -16 -16 -15 -15 -17 -15 -15 -14 -15 -17 -17 -17 -15 -13 -12 -12 -11 -11 -11 -12 -13 -13 -13
-14 -14 -14 -14 -14 -13 -13 -13 -13 -13 -13 -13 -13 -13 -14 -14 -15 -15 -16 -18 -19 -20 -21 -21 -20 -19 -20 -20 -20 -19 -20 -20 -20 -22 -21 -18 -16 -14 -14 -13 -12 -11 -12 -14 -13
Height
5853 5854 5856 5857 5858 5859 5860 5862 5862 5863 5865 5865 5867 5868 5869 5870 5870 5871 5873 5875 5876 5878 5879 5881 5882 5883 5885 5885 5887 5891 5895 5896 5898 5901 5905 5907 5907 5908 5910 5911 5911 5911 5911 5911 5912
5850 5851 5853 5854 5855 5857 5858 5859 5860 5861 5862 5863 5865 5866 5866 5867 5868 5870 5872 5872 5873 5876 5877 5879 5880 5880 5882 5883 5885 5888 5893 5894 5896 5900 5903 5904 5905 5906 5909 5910 5912 5911 5911 5911 5911
5847 5848 5850 5851 5852 5853 5855 5856 5857 5858 5860 5861 5862 5863 5864 5865 5867 5868 5869 5870 5871 5874 5874 5876 5877 5878 5880 5881 5883 5886 5890 5891 5893 5897 5900 5901 5903 5904 5906 5907 5909 5910 5910 5910 5910
5844 5845 5846 5848 5849 5850 5852 5853 5854 5855 5857 5858 5859 5860 5861 5863 5867 5866 5867 5868 5869 5871 5872 5874 5875 5876 5877 5879 5880 5883 5887 5888 5890 5894 5897 5898 5900 5903 5905 5906 5908 5908 5908 5909 5909
5841 5842 5843 5844 5846 5847 5848 5850 5851 5852 5854 5855 5856 5857 5859 5861 5863 5863 5864 5865 5867 5868 5870 5872 5872 5873 5875 5876 5878 5880 5884 5885 5886 5891 5894 5895 5898 5900 5903 5904 5906 5906 5907 5907 5907
5839 5839 5840 5842 5843 5844 5845 5846 5847 5849 5850 5851 5852 5854 5855 5859 5859 5860 5861 5863 5864 5866 5867 5869 5870 5872 5873 5875 5876 5878 5878 5880 5883 5888 5890 5893 5894 5896 5900 5901 5904 5904 5906 5905 5906
5836 5837 5837 5839 5840 5841 5842 5843 5844 5845 5846 5847 5848 5850 5852 5854 5855 5856 5858 5859 5861 5862 5865 5866 5868 5869 5871 5872 5873 5874 5875 5877 5881 5884 5887 5888 5890 5892 5896 5897 5898 5901 5902 5903 5903
5833 5834 5835 5835 5837 5838 5839 5840 5841 5842 5843 5844 5845 5846 5847 5849 5851 5853 5855 5856 5858 5859 5861 5864 5865 5866 5867 5869 5871 5872 5874 5876 5879 5879 5881 5883 5886 5889 5890 5890 5893 5895 5897 5899 5900
5831 5832 5832 5833 5834 5835 5836 5837 5838 5839 5839 5840 5842 5842 5843 5845 5847 5848 5850 5852 5854 5856 5858 5860 5861 5863 5864 5866 5867 5869 5871 5873 5876 5876 5876 5877 5878 5884 5885 5885 5886 5889 5891 5894 5897
5829 5829 5830 5831 5831 5832 5833 5833 5834 5834 5835 5836 5837 5840 5841 5841 5842 5843 5846 5847 5850 5852 5854 5856 5858 5859 5860 5860 5862 5863 5865 5867 5871 5871 5870 5869 5872 5876 5877 5879 5881 5883 5885 5887 5891
5827 5827 5827 5828 5829 5829 5830 5829 5832 5832 5832 5832 5833 5835 5835 5837 5838 5840 5842 5843 5845 5847 5849 5851 5854 5855 5853 5855 5856 5858 5861 5863 5865 5866 5863 5864 5865 5869 5870 5872 5875 5877 5879 5881 5884
5824 5825 5825 5826 5827 5827 5828 5828 5828 5829 5829 5828 5830 5832 5832 5832 5834 5835 5837 5838 5839 5840 5843 5846 5848 5847 5847 5849 5851 5853 5856 5860 5860 5857 5854 5858 5855 5860 5863 5865 5867 5872 5873 5874 5878
5822 5822 5823 5823 5824 5825 5825 5825 5825 5825 5827 5827 5827 5828 5828 5829 5829 5830 5831 5832 5834 5836 5837 5840 5843 5843 5843 5844 5845 5846 5850 5851 5850 5848 5848 5850 5850 5853 5856 5858 5860 5863 5866 5868 5871
5820 5820 5820 5820 5822 5820 5821 5822 5822 5822 5823 5825 5824 5824 5824 5824 5825 5826 5827 5829 5830 5830 5831 5835 5834 5835 5835 5838 5837 5840 5841 5841 5842 5840 5842 5842 5840 5846 5850 5851 5854 5858 5860 5863 5865
5817 5817 5816 5817 5817 5817 5818 5818 5818 5819 5819 5820 5820 5821 5821 5823 5823 5824 5824 5824 5825 5826 5830 5830 5828 5829 5832 5831 5829 5833 5832 5833 5835 5833 5831 5835 5831 5839 5843 5844 5849 5850 5852 5856 5859
5813 5813 5813 5812 5812 5813 5813 5813 5814 5816 5814 5815 5816 5816 5818 5818 5818 5818 5819 5820 5819 5820 5822 5824 5824 5824 5823 5821 5823 5824 5825 5824 5825 5826 5820 5831 5826 5826 5831 5839 5843 5844 5846 5850 5852
5809 5809 5808 5808 5807 5808 5808 5809 5811 5810 5810 5811 5811 5811 5812 5812 5812 5812 5812 5813 5814 5815 5815 5817 5817 5816 5815 5816 5815 5815 5816 5815 5815 5815 5814 5821 5815 5816 5821 5828 5832 5837 5838 5840 5842
5804 5804 5803 5803 5803 5803 5804 5805 5805 5804 5804 5805 5806 5806 5806 5807 5806 5806 5805 5806 5807 5807 5808 5810 5813 5809 5808 5808 5808 5808 5808 5807 5803 5805 5806 5806 5801 5812 5814 5818 5822 5824 5827 5829 5832
5799 5799 5798 5799 5799 5799 5800 5800 5800 5800 5799 5800 5800 5800 5801 5801 5801 5800 5799 5799 5799 5799 5800 5800 5804 5803 5801 5799 5800 5800 5799 5798 5793 5794 5792 5796 5797 5801 5805 5808 5812 5810 5811 5814 5817
5794 5794 5794 5794 5794 5795 5796 5795 5795 5795 5794 5793 5794 5794 5794 5794 5794 5793 5792 5792 5790 5790 5790 5788 5789 5794 5793 5790 5789 5788 5790 5789 5786 5781 5781 5781 5784 5787 5790 5796 5797 5800 5800 5803 5804
5789 5789 5789 5790 5790 5790 5790 5791 5790 5790 5790 5790 5789 5788 5788 5787 5786 5785 5784 5783 5783 5781 5780 5779 5778 5782 5783 5782 5781 5780 5774 5775 5776 5774 5768 5768 5772 5772 5776 5780 5784 5787 5789 5791 5793
5783 5785 5785 5785 5786 5785 5785 5785 5785 5785 5784 5784 5783 5783 5783 5782 5781 5779 5776 5775 5773 5772 5770 5767 5764 5764 5767 5767 5767 5766 5766 5763 5759 5759 5759 5756 5754 5762 5764 5764 5767 5772 5776 5778 5780
5778 5779 5780 5780 5780 5780 5780 5780 5779 5779 5778 5777 5777 5776 5775 5774 5772 5770 5767 5765 5762 5760 5757 5755 5751 5749 5747 5749 5749 5749 5748 5747 5746 5744 5745 5743 5745 5747 5749 5749 5751 5754 5758 5763 5766
5774 5774 5775 5775 5775 5775 5774 5774 5773 5772 5770 5769 5768 5766 5764 5762 5760 5757 5754 5751 5749 5745 5741 5739 5737 5734 5727 5723 5722 5726 5727 5726 5723 5722 5723 5731 5726 5736 5733 5730 5734 5736 5742 5748 5752
5768 5768 5768 5769 5769 5769 5768 5767 5766 5763 5761 5759 5757 5755 5753 5750 5746 5743 5739 5735 5731 5727 5722 5719 5715 5713 5709 5703 5700 5692 5697 5699 5699 5698 5696 5715 5704 5718 5705 5711 5716 5720 5723 5729 5736
5764 5764 5763 5763 5763 5762 5761 5759 5756 5754 5752 5748 5746 5742 5739 5735 5732 5727 5722 5718 5713 5709 5704 5699 5696 5693 5685 5682 5679 5677 5671 5666 5665 5664 5668 5677 5683 5682 5686 5685 5694 5702 5706 5711 5717
5759 5758 5758 5756 5755 5754 5752 5749 5746 5743 5739 5736 5732 5728 5723 5719 5714 5710 5705 5701 5696 5693 5689 5685 5680 5676 5671 5667 5663 5663 5657 5651 5649 5644 5640 5643 5654 5653 5656 5660 5668 5678 5687 5692 5698
Wind_Speed
14 15 15 16 16 15 15 15 14 14 14 12 13 14 12 12 11 11 11 12 11 8 8 9 11 12 12 15 24 36 30 32 29 24 17 18 20 18 15 12 8 9 7 8 10
15 15 16 16 16 16 16 15 15 14 14 14 15 13 13 12 11 11 11 12 11 7 7 8 12 12 12 15 22 36 34 33 30 25 20 21 23 20 15 12 10 10 3 3 5
16 16 17 17 17 17 17 16 15 15 15 15 14 14 14 14 13 12 11 12 10 9 10 9 11 11 12 15 20 35 34 34 33 25 23 23 22 18 16 12 14 11 2 3 7
16 16 16 17 17 17 17 17 16 16 15 14 15 15 15 15 13 13 12 11 11 11 11 10 11 12 13 14 17 34 36 35 35 29 26 26 25 23 21 21 16 18 5 5 5
15 15 15 15 16 16 16 16 15 16 16 16 16 17 17 16 15 16 15 13 13 13 12 12 14 15 15 16 19 28 37 39 38 29 30 30 27 26 23 22 19 18 11 4 7
14 15 14 15 15 15 14 14 14 15 15 16 18 19 20 18 18 18 17 15 15 15 14 14 15 14 15 15 18 25 36 40 39 33 31 30 29 29 25 24 22 22 15 10 12
13 14 13 14 14 13 14 13 13 13 13 15 18 21 21 20 21 21 20 19 18 17 15 14 14 14 14 17 17 22 32 38 39 36 34 34 33 33 28 28 27 26 22 11 11
13 13 14 14 14 15 15 15 14 15 15 15 17 20 20 22 22 22 20 20 20 19 17 15 14 14 15 16 18 21 26 35 39 40 39 38 32 32 33 32 29 26 24 14 17
11 11 12 13 14 15 15 15 15 16 18 19 19 18 17 20 22 23 22 21 21 21 19 18 17 16 16 17 19 22 24 41 43 43 44 43 38 34 34 33 32 30 30 27 18
10 9 10 10 11 13 13 14 15 17 17 18 20 19 17 18 20 22 22 22 21 21 20 19 19 18 19 21 22 24 27 29 49 48 47 47 44 41 41 40 38 36 34 34 22
8 8 7 8 8 10 12 14 14 15 15 16 17 17 19 19 19 21 21 22 22 22 22 21 21 20 24 25 26 26 27 30 31 52 55 52 51 48 47 45 43 40 39 40 39
7 8 8 8 8 8 8 9 11 14 14 15 15 12 14 16 19 22 23 25 25 26 25 24 22 26 27 28 28 28 28 26 32 38 48 59 60 56 54 52 51 47 46 44 45
7 7 8 9 9 10 10 11 11 12 12 14 14 14 16 16 18 21 23 25 26 26 27 26 27 29 30 29 30 31 29 29 34 38 42 45 53 60 59 54 51 49 48 44 45
7 8 8 9 9 11 12 13 14 14 15 14 14 15 17 19 21 20 20 20 22 26 28 26 29 31 33 31 35 34 34 37 37 40 41 44 50 49 51 52 48 44 41 36 32
10 11 11 12 13 13 13 13 14 15 16 17 17 16 19 19 20 20 21 23 24 24 22 24 29 32 31 33 36 34 37 38 39 43 46 44 51 46 45 46 41 42 38 33 29
14 14 15 15 16 16 16 15 15 14 15 16 16 17 18 19 20 21 21 22 24 25 23 24 25 26 28 32 34 35 37 39 40 41 49 42 47 50 47 40 38 38 38 37 38
17 17 17 18 17 16 16 15 13 14 15 15 16 18 18 20 21 24 24 24 25 26 27 26 25 28 31 32 33 34 36 39 42 43 45 41 48 51 48 42 41 39 39 37 39
21 20 19 17 16 14 14 14 14 16 16 17 18 20 21 21 22 24 26 26 26 27 29 27 26 27 30 31 32 33 34 38 43 44 42 43 50 43 46 45 42 43 46 48 46
23 20 17 15 15 14 13 13 13 15 16 17 19 21 22 23 25 26 28 29 30 30 31 32 27 28 31 32 33 34 36 39 45 46 50 48 49 44 42 40 39 43 45 45 45
21 18 16 16 15 14 13 13 13 15 16 19 19 21 21 22 24 25 26 28 30 30 30 34 34 28 30 33 35 37 38 40 43 49 52 53 52 50 48 45 44 42 44 42 43
19 17 16 15 15 14 14 15 16 17 18 19 19 21 22 24 26 28 30 32 33 35 36 38 40 38 37 37 38 40 44 43 44 48 54 57 55 56 53 49 46 45 45 46 45
17 17 16 15 15 15 16 17 17 17 17 18 21 23 25 27 29 31 34 36 38 39 42 44 47 48 46 46 46 48 49 51 53 54 53 57 62 57 55 55 52 49 47 46 46
17 18 18 18 17 17 17 18 18 18 20 21 24 26 28 31 35 37 40 43 45 47 48 50 54 57 58 58 57 57 58 59 60 62 62 63 62 62 59 59 59 56 53 49 47
17 18 19 20 20 19 19 20 22 24 26 28 30 33 35 38 40 43 45 48 50 53 56 58 60 63 67 71 71 69 68 67 70 71 71 67 69 64 64 65 61 61 59 55 50
16 17 19 20 21 23 24 26 28 30 32 34 36 38 40 42 45 47 50 53 56 59 62 64 67 70 71 75 79 83 81 80 77 77 80 73 77 71 76 72 68 65 62 59 55
15 17 19 21 23 25 28 30 32 34 36 38 40 43 45 47 50 52 54 55 55 57 57 60 63 68 66 72 75 79 78 75 74 69 78 81 83 85 83 83 77 70 67 64 62
17 19 21 23 25 28 30 33 35 36 39 41 44 46 48 49 49 48 46 43 41 38 40 44 48 51 50 47 47 52 48 49 49 41 50 63 71 81 87 89 87 81 73 70 67
Wind_Direction
232 234 234 237 241 240 238 239 238 236 239 240 242 243 243 247 256 260 260 256 253 252 242 235 234 234 223 221 203 201 202 218 226 232 227 219 229 234 250 270 290 349 16 72 44
234 236 240 240 241 241 239 238 239 238 237 238 237 237 241 245 253 255 251 245 247 244 234 226 228 229 223 224 205 202 203 216 226 228 230 221 232 249 255 273 308 343 73 114 16
237 239 242 243 242 241 239 236 236 236 233 232 236 239 241 242 245 249 248 249 251 237 233 225 229 225 220 218 211 205 201 217 228 228 226 231 233 238 253 261 303 315 282 233 300
240 241 242 241 239 238 237 236 236 236 235 235 237 239 240 240 241 244 245 243 241 233 234 225 222 220 220 220 220 201 201 218 229 229 225 231 237 244 260 279 310 335 305 246 264
239 236 237 239 239 238 237 238 239 242 239 239 241 240 242 241 240 240 242 244 243 238 231 223 221 219 219 217 220 203 203 215 227 226 227 236 242 253 264 274 283 319 325 290 287
238 235 235 237 238 238 240 242 242 244 242 245 247 245 243 241 239 240 242 242 245 247 237 228 227 225 224 224 227 218 211 217 227 224 230 236 244 254 258 264 268 283 302 297 292
238 237 236 238 239 241 240 240 241 242 245 246 246 244 244 242 239 240 241 240 240 245 242 239 236 232 228 226 226 231 223 221 222 231 233 242 247 250 256 260 264 273 288 283 289
243 244 240 242 241 241 238 239 242 242 244 246 248 246 245 244 244 245 245 248 249 247 246 246 244 232 228 228 227 230 242 229 223 234 239 246 245 245 249 258 266 268 281 294 307
250 245 246 244 244 242 241 241 241 242 241 243 246 249 249 247 245 245 242 243 243 245 245 243 243 241 235 231 227 225 233 229 223 233 240 244 253 248 251 257 262 268 280 283 295
247 247 248 248 246 244 242 240 238 239 241 242 244 246 250 249 246 244 243 244 241 240 241 242 246 245 241 240 235 226 225 227 227 231 240 248 254 254 254 257 261 269 271 280 285
245 246 246 246 244 241 235 233 234 237 239 240 241 242 246 247 249 247 244 246 243 241 238 238 239 242 243 243 244 242 233 230 229 230 238 244 251 254 256 260 264 270 273 277 279
246 248 245 242 243 243 244 247 246 245 241 243 245 242 245 247 245 246 242 241 243 242 239 236 235 239 244 245 247 249 248 243 239 237 241 236 244 249 253 260 263 265 268 271 272
251 253 255 254 255 254 253 251 249 252 252 250 254 248 247 252 253 250 249 248 246 250 249 248 247 247 249 251 251 251 251 248 244 243 245 247 246 247 251 257 264 266 265 266 268
271 269 261 260 256 255 254 255 255 258 259 260 252 251 252 253 254 255 258 259 255 251 252 252 252 247 248 250 253 252 251 246 247 249 246 248 251 250 254 258 261 262 262 263 265
279 287 280 267 264 266 265 263 260 258 260 262 262 258 259 262 267 266 266 266 265 266 266 259 255 256 256 254 254 254 253 253 251 251 253 250 256 258 253 256 259 260 261 258 253
273 277 284 282 276 272 267 265 264 258 261 262 264 263 263 267 268 266 264 265 265 266 264 261 262 261 259 260 261 261 260 260 257 256 255 255 257 258 259 257 259 255 254 253 249
276 283 285 281 275 272 269 262 256 254 256 256 260 263 264 265 265 267 266 264 262 262 264 262 260 260 261 259 261 263 264 265 264 261 263 258 254 257 260 257 258 255 255 253 250
278 281 280 277 270 264 259 261 256 253 254 257 255 258 261 264 267 269 271 271 267 265 265 260 255 261 261 264 263 264 264 264 266 265 263 263 261 259 259 259 257 257 258 257 257
280 277 272 267 262 259 256 257 256 257 263 262 261 263 265 264 265 266 268 271 272 273 274 272 263 262 262 264 263 262 263 263 267 267 266 260 260 262 262 262 255 252 249 251 254
276 272 264 259 255 254 257 256 258 261 261 266 266 268 268 269 271 275 277 277 279 281 279 280 276 272 273 275 270 267 261 259 260 265 266 268 268 266 261 257 257 253 254 251 251
267 264 256 254 256 256 257 259 260 262 263 262 264 270 274 277 279 279 280 281 281 282 281 282 280 279 275 267 267 268 272 269 264 261 264 268 266 267 268 266 260 256 255 256 257
260 258 249 254 256 260 263 264 265 266 265 267 269 270 270 272 273 274 276 278 280 279 279 280 281 281 276 274 271 268 264 264 264 264 262 265 266 269 269 269 268 263 257 254 255
256 256 256 253 258 262 265 268 270 272 277 279 280 280 280 281 280 280 280 281 281 281 280 280 280 282 279 276 272 269 267 265 265 265 264 262 265 266 265 264 265 264 262 258 257
257 255 257 258 265 267 270 274 278 281 284 285 285 286 287 286 285 284 283 281 281 280 280 279 277 277 277 277 275 271 268 267 267 263 261 265 263 261 263 263 263 263 261 259 257
266 266 267 266 267 269 273 279 286 288 288 287 287 287 287 286 286 285 285 284 283 282 281 280 279 278 277 276 276 278 275 270 265 262 261 263 261 262 259 256 256 257 258 259 256
267 272 271 276 278 281 283 284 286 288 288 288 288 289 289 289 290 288 286 284 282 281 279 278 278 277 279 276 276 274 277 281 279 277 269 259 257 256 257 258 256 252 255 255 255
280 281 283 285 286 286 286 289 290 290 291 292 292 292 292 291 289 287 285 285 289 295 298 298 297 293 293 294 292 288 289 288 289 293 287 279 270 262 254 252 252 251 250 251 252